星链-32525 (STARLINK-32525)

导读 | 星芒AI

STARLINK-32525 是 SpaceX Starlink 卫星互联网项目中的一颗低轨道卫星,属于第6批部署的星链卫星之一。该卫星于2022年发射,旨在为全球用户提供高速互联网服务。它运行在约550公里高度的近地轨道,采用先进通信技术,支持宽带数据传输。作为星链计划的一部分,STARLINK-32525 有助于扩大网络覆盖范围,特别是在偏远和网络基础设施薄弱的地区。该卫星设计寿命约5至7年,具备自动规避太空碎片的能力,以确保运行安全。

基本信息
目录编号:
62121
目录名称:
STARLINK-32525
国际标识:
2024-222H
轨道中心:
EARTH
卫星名称:
星链-32525
卫星全名:
星链-32525 (STARLINK-32525)
卫星状态:
在轨 (已飞行342 天)
发射日期:
2024-11-27 UTC
国别 :
美国 (US)
星等 :
--
轨道信息
数据来源 国际轨道数据
星历时间: 2025-11-04T05:29:29+0800
10小时前
查看轨道信息
半长轴: 6861.128km
偏心率: 0.0001853
轨道倾角: 43.002°
近地点辐角 271.447°
升交点赤经 126.325°
平近点角 88.617°
近地点: 481.721km
远地点: 484.265km
周期: 94.266分钟
每日圈数: 15.275996
详细信息
固有亮度:
5
最大亮度:
2.5
卫星平台:
Starlink V1.0
覆盖范围:
全球
运营商:
太空探索技术公司
运营商所在国:
美国
制造商(研发单位):
太空探索技术公司
制造商所在国:
美国
使用方式:
暂无
卫星简介
Starlink 计划是 SpaceX 推出的全球卫星互联网项目,通过发射低轨道卫星,为全球尤其是偏远地区提供高速、低延迟的互联网服务。自 2019 年起,Starlink 已部署数千颗卫星,旨在缩小全球数字鸿沟,推动互联网普及。该项目还为军事、航空等行业提供通信支持,带来广泛经济效益。
2D轨道图
3D轨道图
轨道高度分析图
轨道倾角分析图
轨道综合分析图
查看轨道综合分析图